LIRQLIRP

Guest
Details From LIRQ - Firenze
To LIRP - PISA
Flight Number -
Tags generated
Created
Modified
Stats Distance 37 nm / 68 km
Max Altitude 0 ft / 0 m
Waypoints 3
Social Downloads 0
Likes 0
Share VATSIM

Download

Looking for another format? Having issues loading an existing format? Contact us
Advertisement - Login to hide

Notes

Basic altitude profile: - Ascent Rate: 2500ft/min - Ascent Speed: 250kts - Cruise Altitude: 8000ft - Cruise Speed: 250kts - Descent Rate: 1500ft/min - Descent Speed: 250kts Options: - Use NATs: yes - Use PACOTS: yes - Use low airways: no - Use high airways: yes

Route

LIRQ PIS LIRP

ID Type Via Altitude Latitude Longitude Leg Dist Tot Dist Heading (true) Name
O LIRQ APT - 0 ft / 0 m 43.80998˚ 11.20512˚ - 0 nm - Firenze
PIS VOR - 0 ft / 0 m 43.67720˚ 10.39055˚ 36 nm 36 nm 258° / 257° PISA VOR-DME
O LIRP APT - 0 ft / 0 m 43.68388˚ 10.39272˚ 0 nm 36 nm 13° / 13° PISA

Altitude Profile

Advertisement - Login to hide

LIRQ

Details ICAO LIRQ (FLR)
Name Firenze
Region Italy
Timezone Europe/Rome (UTC+2.0)
Stats Elevation 142 ft / 43 m (AMSL)
Location 43.809984° 11.205118°
Runways 1
Magnetic Variation 2.923° E

METAR

LIRQ 231420Z 25003KT 190V300 9999 SCT035 SCT050 22/16 Q1015

Decode

TAF

TAF LIRQ 231100Z 2312/2412 VRB05KT 9999 SCT020 TEMPO 2312/2315 RA TEMPO 2402/2406 1500 BR BKN005

Decode

Departure Runways

ID Width Length Bearing (true) Bearing (mag) Surface Threshold Offset Overrun Length
05 98 ft / 30 m 5,420 ft / 1,652 m 48.52° 45.60° Asphalt 492 ft / 150 m 0 ft / 0 m
23 98 ft / 30 m 5,420 ft / 1,652 m 228.53° 225.61° Asphalt 2,287 ft / 697 m 0 ft / 0 m

LIRP

Details ICAO LIRP (PSA)
Name PISA
Region Italy
Timezone Europe/Rome (UTC+2.0)
Stats Elevation 6 ft / 2 m (AMSL)
Location 43.683883° 10.392724°
Runways 2
Magnetic Variation 2.752° E

METAR

LIRP 231415Z 30012KT 9999 FEW030 22/16 Q1016 NOSIG

Decode

TAF

TAF LIRP 231100Z 2312/2412 29010KT 9999 SCT040 PROB40 TEMPO 2312/2316 3000 TSRA FEW020CB BKN040 TEMPO 2322/2406 5000 BR PROB40 TEMPO 2402/2406 0800 FG SCT002

Decode

Destination Runways

ID Width Length Bearing (true) Bearing (mag) Surface Threshold Offset Overrun Length
04L 141 ft / 43 m 9,158 ft / 2,791 m 36.70° 33.95° Asphalt 979 ft / 298 m 0 ft / 0 m
04R 148 ft / 45 m 9,819 ft / 2,993 m 36.72° 33.97° Asphalt 490 ft / 149 m 0 ft / 0 m
22L 148 ft / 45 m 9,819 ft / 2,993 m 216.73° 213.98° Asphalt 843 ft / 257 m 0 ft / 0 m
22R 141 ft / 43 m 9,158 ft / 2,791 m 216.72° 213.97° Asphalt 0 ft / 0 m 0 ft / 0 m

Approach Navaids

Runway Type Ident Frequency Range Bearing (true) Bearing (mag) Slope Elevation
04R Localiser IPI 109.70 MHz 18 nm / 33 km 36.76° 34.01° - 7 ft / 2 m (AMSL)
04R Glidescope IPI 109.70 MHz 10 nm / 19 km 36.72° 33.97° 3.00° 3 ft / 1 m (AMSL)

Popular Alternatives